Lapse_Rate
5.7 6.0 5.9 6.1 6.1 6.0 5.9 5.7 5.6 5.5 5.4 5.3 5.3 5.1 4.9 5.0 5.4 5.9 6.4 6.8 6.4 6.3 6.5 6.2 5.8 5.7 5.7 5.7 5.1 5.0 5.0 5.3 5.3 5.1 5.6 6.0 5.9 6.3 6.4 6.6 6.8 6.9 7.0 6.7 6.4 6.5 6.4 6.9 6.7 6.5 6.0 5.6 5.3 5.1
5.8 6.0 6.0 6.1 6.0 6.0 5.8 5.7 5.6 5.5 5.5 5.3 5.2 5.0 4.9 5.3 5.7 5.8 6.2 6.3 6.1 5.5 5.9 5.6 5.6 5.5 5.8 5.5 5.2 5.1 5.2 5.2 5.3 5.3 5.8 6.0 6.2 6.2 6.4 6.5 6.9 7.0 7.3 7.2 7.0 6.9 7.1 7.0 6.8 6.4 6.2 5.8 5.7 5.4
6.0 6.0 6.1 6.1 6.0 5.9 5.9 5.8 5.7 5.6 5.5 5.3 5.2 4.9 4.8 5.1 5.5 5.7 6.0 6.2 5.9 5.4 5.6 5.4 5.4 5.9 5.9 5.3 4.8 4.5 4.9 5.0 5.3 5.5 5.8 5.7 5.8 6.3 6.6 6.4 6.7 7.0 7.2 7.0 6.9 7.1 7.0 6.8 6.8 6.6 6.3 5.9 5.7 5.5
6.1 6.1 6.2 6.1 6.0 6.1 6.0 5.8 5.8 5.6 5.5 5.3 5.0 4.9 4.9 5.2 5.7 5.8 6.0 6.1 5.8 5.0 4.8 5.0 5.5 6.1 5.8 5.4 5.4 5.2 5.1 5.2 5.2 5.3 5.5 5.6 5.9 6.3 6.4 6.6 6.9 6.9 6.9 7.0 6.9 7.0 6.8 6.6 6.4 6.5 6.3 6.1 5.8 5.4
6.1 6.3 6.3 6.2 6.2 6.2 5.9 5.8 5.7 5.5 5.4 5.2 5.0 5.0 5.0 5.2 5.8 6.2 6.4 6.0 5.6 5.0 5.0 4.9 5.3 6.1 5.7 5.2 5.2 5.2 5.6 5.8 6.0 5.9 5.7 5.9 6.3 6.4 6.5 6.6 6.8 6.9 6.7 6.7 6.7 6.7 6.6 6.4 6.4 6.3 6.1 6.1 6.2 5.9
6.3 6.4 6.3 6.2 6.2 6.1 5.9 5.7 5.5 5.4 5.3 5.2 5.0 4.9 5.1 5.3 5.6 6.2 6.4 5.7 5.4 5.2 5.2 4.9 5.2 6.2 6.0 5.9 6.1 6.1 6.0 6.1 6.2 6.1 6.1 6.2 6.5 6.4 6.4 6.6 6.9 7.0 6.9 6.9 6.7 6.4 6.3 6.3 6.1 6.0 6.0 6.0 6.2 6.2
6.5 6.5 6.4 6.3 6.1 5.9 5.7 5.7 5.5 5.4 5.2 5.1 4.9 4.9 5.1 5.5 5.8 5.8 5.4 5.5 5.3 5.0 5.3 5.4 5.9 6.4 6.5 6.2 6.2 6.3 6.4 6.4 6.3 6.2 6.3 6.3 6.4 6.5 6.5 6.5 6.6 6.6 6.7 6.7 6.5 6.3 6.2 6.2 6.0 5.9 5.8 5.9 6.1 6.2
6.5 6.4 6.4 6.3 6.1 5.9 5.7 5.6 5.5 5.3 5.2 5.0 4.9 4.9 5.3 5.8 5.8 5.7 5.5 5.5 5.8 5.8 5.8 6.2 6.5 6.5 6.9 6.7 6.7 6.8 6.9 6.8 6.5 6.4 6.3 6.3 6.4 6.4 6.3 6.4 6.6 6.5 6.3 6.3 6.2 6.1 6.0 5.8 5.8 5.9 6.0 6.1 6.3 6.4
6.6 6.5 6.4 6.1 6.0 5.8 5.7 5.5 5.4 5.2 5.0 4.9 4.9 5.0 5.4 5.7 5.6 5.4 5.4 5.7 5.8 6.1 6.2 6.6 6.7 6.8 7.1 7.2 7.1 7.1 6.9 6.5 6.3 6.2 6.2 6.1 6.2 6.4 6.1 6.1 6.1 6.1 6.2 6.0 5.8 5.8 5.8 5.7 5.8 6.0 6.2 6.3 6.5 6.5
6.7 6.6 6.5 6.1 5.9 5.7 5.6 5.4 5.3 5.0 4.9 4.9 4.8 5.0 5.3 5.4 5.2 5.0 5.4 6.0 6.3 6.5 6.8 7.2 7.5 7.4 7.2 7.2 6.9 6.8 6.7 6.6 6.4 6.3 6.2 6.1 6.3 6.1 6.0 6.0 6.1 6.0 6.0 5.9 5.6 5.5 5.5 5.5 5.7 5.8 5.9 6.1 6.2 6.3
6.7 6.5 6.2 6.0 5.9 5.7 5.6 5.4 5.1 5.0 4.8 4.6 4.6 4.7 5.1 5.1 4.9 5.0 5.5 6.3 6.8 7.1 7.4 7.6 7.5 7.5 7.3 7.1 7.0 6.8 6.8 6.7 6.4 6.5 6.5 6.3 6.2 6.1 6.0 6.0 6.0 5.9 5.9 5.8 5.8 5.7 5.6 5.5 5.5 5.4 5.7 5.9 5.9 6.0
6.6 6.4 6.1 6.0 5.8 5.6 5.5 5.3 5.1 5.0 4.6 4.3 4.3 4.9 4.9 5.0 5.0 5.4 6.2 6.8 7.2 7.2 7.5 7.6 7.4 7.3 7.3 7.2 7.2 6.9 6.7 6.7 6.6 6.6 6.6 6.4 6.3 6.2 6.2 6.1 6.1 6.1 6.0 5.9 5.7 5.7 5.6 5.6 5.6 5.5 5.4 5.6 5.6 5.7
6.6 6.3 6.2 5.9 5.8 5.5 5.3 5.2 5.0 4.8 4.5 4.4 4.5 4.3 4.7 5.0 5.5 5.7 6.5 7.2 7.6 7.4 7.5 7.4 7.4 7.4 7.5 7.3 7.2 7.0 6.9 6.8 6.8 6.7 6.7 6.6 6.5 6.5 6.5 6.5 6.5 6.5 6.4 6.2 6.1 6.0 5.9 5.8 5.6 5.6 5.7 5.7 5.8 5.7
6.3 6.3 6.0 5.9 5.6 5.4 5.3 5.2 5.1 4.6 4.4 4.4 4.2 4.4 4.9 5.3 5.5 5.8 6.3 6.6 7.1 7.2 7.3 7.4 7.5 7.4 7.5 7.3 7.3 7.2 7.1 7.0 6.9 6.6 6.9 6.8 6.7 6.7 6.8 6.8 6.9 6.8 6.8 6.8 6.7 6.5 6.3 6.0 5.9 5.8 5.6 5.6 5.6 5.6
6.4 6.0 5.8 5.7 5.5 5.4 5.3 5.2 4.8 4.5 4.3 4.3 4.5 4.7 5.1 5.5 5.5 5.7 5.8 6.4 6.9 7.1 7.2 7.4 7.5 7.6 7.6 7.4 7.3 7.2 7.2 7.1 7.0 7.0 7.0 6.9 6.8 6.8 6.8 6.8 6.8 6.8 6.9 6.9 6.9 6.8 6.7 6.5 6.3 6.2 6.1 6.0 5.8 5.7
6.2 6.1 5.9 5.6 5.4 5.3 5.2 5.0 4.7 4.6 4.5 4.4 4.4 4.9 5.2 5.4 5.5 5.6 5.8 6.2 6.7 7.1 7.2 7.3 7.4 7.5 7.5 7.4 7.3 7.4 7.2 7.2 7.4 7.3 7.1 6.9 6.8 6.7 6.7 6.6 6.7 6.7 6.7 6.8 6.8 6.7 6.6 6.5 6.3 6.2 6.1 6.1 6.0 5.9
5.9 6.0 5.7 5.5 5.3 5.3 5.0 4.6 4.5 4.6 4.9 4.2 4.6 4.8 5.1 5.2 5.3 5.5 5.9 6.3 6.7 7.1 7.1 7.1 7.4 7.5 7.4 7.3 7.1 7.2 7.4 7.6 7.4 7.1 6.9 6.7 6.7 6.6 6.5 6.5 6.6 6.6 6.6 6.6 6.5 6.6 6.6 6.5 6.4 6.2 6.0 5.8 5.6 5.6
5.9 5.7 5.6 5.5 5.4 5.3 4.8 4.7 4.3 4.7 4.8 4.6 4.6 5.0 5.3 5.4 5.6 5.7 5.8 6.0 6.2 6.5 7.0 7.0 7.1 7.4 7.5 7.1 7.0 7.3 7.0 6.9 6.7 6.5 6.3 6.2 6.1 6.2 6.2 6.3 6.4 6.4 6.3 6.3 6.3 6.2 6.2 6.2 6.1 6.0 5.9 5.8 5.6 5.4
5.8 5.7 5.5 5.3 5.1 5.0 4.5 4.5 4.6 4.6 4.7 4.8 4.9 5.2 5.5 5.7 5.9 6.0 6.1 6.1 6.1 6.1 6.1 6.3 6.7 7.0 7.1 6.9 6.7 6.5 6.2 6.0 5.9 5.8 5.7 5.7 5.7 5.8 5.8 5.9 5.9 5.9 5.9 5.8 5.8 5.7 5.7 5.7 5.6 5.5 5.4 5.4 5.4 5.4
5.5 5.4 5.3 5.2 5.0 4.7 4.7 4.6 4.7 4.8 5.0 5.2 5.4 5.6 5.8 6.0 6.0 6.1 6.1 6.2 6.2 6.1 6.0 5.9 6.1 6.3 6.4 6.3 6.2 5.9 5.7 5.5 5.4 5.3 5.4 5.3 5.3 5.3 5.3 5.3 5.3 5.2 5.2 5.2 5.2 5.3 5.1 5.2 5.2 5.1 5.1 5.0 5.0 5.0
5.4 5.2 5.2 5.0 4.8 5.1 4.9 5.0 5.0 5.1 5.2 5.4 5.8 5.9 6.0 6.1 6.1 6.0 6.0 6.1 6.2 6.1 5.8 5.9 5.7 5.6 5.5 5.4 5.3 5.2 5.1 5.0 5.0 5.0 5.0 4.9 4.9 4.9 4.9 4.9 4.9 4.9 4.9 4.8 4.8 4.8 4.8 4.8 4.8 4.7 4.7 4.7 4.6 4.6
5.3 5.1 5.0 4.8 5.0 5.0 5.1 5.1 5.2 5.3 5.4 5.8 6.0 6.0 6.1 6.1 6.0 6.0 6.0 6.1 6.0 5.9 5.8 5.5 5.3 5.1 4.9 4.8 4.8 4.9 4.9 4.8 4.7 4.7 4.7 4.7 4.8 4.7 4.7 4.7 4.7 4.7 4.7 4.7 4.7 4.6 4.6 4.5 4.6 4.5 4.4 4.4 4.4 4.4
5.1 4.9 4.9 4.9 5.0 4.9 5.2 5.2 5.4 5.6 5.7 5.9 6.1 6.1 6.1 6.0 6.0 5.9 5.9 5.8 5.7 5.5 5.3 5.1 4.9 4.8 4.6 4.5 4.4 4.4 4.5 4.6 4.7 4.7 4.7 4.7 4.8 4.8 4.8 4.9 4.9 4.9 4.9 4.8 4.8 4.8 4.8 4.8 4.7 4.7 4.6 4.6 4.6 4.5
4.9 4.9 4.8 4.8 4.8 5.0 5.2 5.6 5.8 5.8 6.0 6.1 6.0 6.0 6.0 5.9 5.9 5.9 5.8 5.5 5.4 5.1 5.0 4.9 4.7 4.6 4.4 4.4 4.4 4.3 4.4 4.4 4.6 4.7 4.8 4.8 4.8 4.8 4.8 4.8 4.8 4.8 4.7 4.7 4.7 4.6 4.6 4.6 4.6 4.6 4.6 4.7 4.6 4.6
4.9 4.9 5.1 5.0 5.0 5.2 5.6 5.9 6.0 6.0 6.1 6.1 6.1 6.2 6.1 5.8 5.7 5.7 5.6 5.5 5.4 5.2 5.0 4.7 4.7 4.5 4.5 4.4 4.4 4.5 4.7 4.8 4.9 4.9 4.9 4.9 4.9 4.9 4.9 4.9 4.9 4.8 4.8 4.7 4.6 4.5 4.4 4.3 4.3 4.3 4.3 4.4 4.4 4.4
5.1 5.0 5.2 5.0 5.2 5.6 5.6 5.7 5.9 5.9 6.0 6.1 6.2 6.0 5.8 5.7 5.7 5.7 5.5 5.5 5.5 5.2 4.9 4.7 4.7 4.6 4.6 4.5 4.6 4.7 4.8 5.0 5.0 5.1 5.1 5.1 5.1 5.0 4.9 4.8 4.7 4.6 4.6 4.5 4.4 4.3 4.2 4.2 4.2 4.2 4.2 4.2 4.1 4.1
5.1 5.2 5.4 5.6 5.8 5.7 5.6 5.9 6.0 6.1 6.1 6.0 5.9 5.7 5.6 5.8 5.6 5.5 5.5 5.6 5.3 5.1 4.9 4.8 4.9 4.9 4.9 4.9 4.9 4.9 4.9 5.1 5.2 5.2 5.1 5.0 5.0 4.8 4.7 4.6 4.6 4.5 4.4 4.3 4.1 4.1 4.3 4.3 4.2 4.1 4.2 4.2 4.2 3.9
5.0 5.2 5.5 5.7 5.7 5.8 5.9 5.9 5.9 6.0 5.8 5.7 5.5 5.5 5.5 5.6 5.6 5.4 5.5 5.4 5.2 5.1 5.1 5.1 5.1 5.1 5.2 5.2 5.1 5.1 5.1 5.1 5.0 5.0 4.8 4.7 4.6 4.6 4.5 4.5 4.4 4.3 4.3 4.2 4.2 4.5 4.6 4.7 4.7 4.7 4.7 4.9 4.9 4.8
5.3 5.6 5.8 5.8 5.8 5.8 5.9 5.8 5.7 5.7 5.6 5.5 5.4 5.3 5.3 5.2 5.3 5.3 5.3 5.3 5.2 5.2 5.3 5.2 5.3 5.3 5.3 5.1 4.8 4.8 5.1 5.0 4.9 4.8 4.7 4.6 4.4 4.3 4.4 4.5 4.6 4.6 4.6 4.6 4.5 4.5 4.8 4.9 4.9 4.8 4.9 5.0 5.0 5.1
5.7 5.8 5.8 5.8 5.8 5.7 5.7 5.5 5.6 5.5 5.4 5.3 5.2 5.2 5.1 5.1 5.1 5.2 5.3 5.2 5.3 5.3 5.3 5.3 5.2 5.2 5.2 5.2 5.3 5.0 4.7 5.0 5.0 5.0 5.1 5.0 4.9 4.8 4.8 4.9 5.0 4.9 4.9 5.0 5.0 5.0 5.0 5.1 5.1 5.1 5.1 5.1 5.1 5.2
5.8 5.8 5.9 5.8 5.6 5.4 5.4 5.4 5.4 5.4 5.3 5.2 5.1 5.0 5.0 5.0 5.1 5.2 5.3 5.3 5.4 5.4 5.3 5.2 5.1 5.0 5.2 5.1 5.3 5.6 5.4 5.2 5.3 5.2 5.2 5.2 5.1 5.1 5.1 5.1 5.2 5.4 5.5 5.5 5.5 5.6 5.7 5.7 5.7 5.7 5.7 5.6 5.4 5.4
5.9 5.9 5.7 5.5 5.3 5.3 5.4 5.4 5.4 5.3 5.3 5.2 5.1 5.1 5.1 5.3 5.4 5.5 5.5 5.5 5.5 5.4 5.3 5.2 5.3 5.5 5.5 5.4 5.5 5.5 5.6 5.6 5.5 5.4 5.4 5.3 5.4 5.4 5.5 5.8 6.2 6.4 6.2 6.1 6.0 6.0 6.0 6.0 6.1 6.0 6.0 5.8 5.6 5.4
5.7 5.5 5.4 5.2 5.3 5.4 5.4 5.3 5.3 5.3 5.4 5.4 5.4 5.4 5.6 5.7 5.7 5.7 5.6 5.6 5.5 5.4 5.4 5.5 5.4 5.6 5.8 5.9 5.9 5.8 5.8 5.8 5.7 5.7 5.7 5.7 5.7 5.7 5.7 5.7 6.0 6.4 6.4 6.3 6.2 6.1 6.1 6.0 6.0 5.9 5.9 5.8 5.6 5.5
Wind_Speed
11 11 11 12 13 13 17 16 17 18 19 17 16 14 14 13 12 4 3 8 3 3 5 5 3 5 6 4 6 1 3 1 2 3 2 4 2 3 2 2 3 4 4 3 2 3 6 10 6 4 4 4 5 6
10 11 12 13 14 15 17 18 18 19 19 19 18 18 17 16 15 10 3 6 5 4 4 4 9 13 14 5 4 3 3 1 2 3 2 2 2 0 1 2 3 2 3 1 3 2 3 4 4 10 11 10 12 11
10 11 13 15 16 17 18 18 19 20 20 21 22 19 19 17 16 13 3 3 2 2 4 3 5 4 4 1 3 3 2 3 3 2 3 2 4 1 3 4 1 2 1 2 2 3 4 11 10 13 13 11 12 13
12 13 15 16 17 18 19 20 20 22 22 21 21 21 21 20 18 16 3 3 2 2 3 3 2 2 3 2 1 1 2 2 2 2 3 4 3 2 2 1 1 1 1 3 3 5 3 11 12 11 13 12 14 14
12 13 15 16 17 19 19 21 24 25 25 24 24 22 20 20 20 15 5 6 7 3 2 2 3 3 3 2 1 3 5 5 3 3 4 3 2 1 2 1 3 5 5 3 2 5 4 4 9 14 12 15 14 13
12 14 16 18 19 20 21 22 24 26 25 26 24 23 20 19 18 1 2 1 2 2 2 2 1 2 2 3 4 4 4 4 2 2 2 2 1 2 2 2 4 6 6 5 4 10 8 11 5 14 11 14 14 12
13 14 16 18 20 21 23 24 24 26 28 28 26 26 21 22 9 3 1 1 8 3 1 2 3 1 1 1 2 1 2 2 2 2 3 2 1 2 3 3 8 8 9 3 6 10 2 7 7 11 11 10 12 7
14 15 18 19 21 22 23 24 29 32 30 28 24 21 9 3 8 2 4 9 8 2 1 2 3 1 3 1 1 0 2 2 2 2 1 1 1 4 4 6 7 8 11 1 12 7 6 9 7 9 9 9 10 9
14 16 19 21 22 22 22 27 29 32 30 22 9 3 3 4 2 1 8 4 6 1 1 2 1 3 2 1 1 1 0 2 1 2 2 2 4 5 5 8 8 8 6 9 12 4 8 6 9 10 10 11 10 11
15 17 19 21 22 19 25 26 27 32 19 12 4 2 1 1 5 4 1 1 0 1 1 2 0 2 3 3 2 2 1 2 2 2 2 3 3 5 4 4 4 6 6 7 6 8 11 10 11 12 10 9 8 9
15 17 20 21 19 18 25 26 24 25 11 4 4 2 1 6 1 0 1 2 2 1 1 1 2 2 2 1 2 1 2 1 2 2 3 2 2 2 6 6 4 4 5 5 3 4 5 6 8 9 10 10 9 9
15 19 21 22 12 20 24 23 21 7 2 4 2 1 1 2 1 2 2 2 0 2 1 1 0 1 1 2 1 1 2 1 1 2 1 2 2 4 6 6 6 6 7 6 4 5 5 5 5 6 7 9 9 8
15 20 23 22 8 23 25 22 21 20 16 1 1 1 2 2 5 3 4 3 1 0 1 1 1 1 1 0 2 1 1 1 1 2 2 2 3 5 5 5 6 7 7 7 8 8 8 9 8 9 9 9 9 9
16 20 22 16 11 27 24 22 20 14 3 2 3 4 2 2 2 3 3 3 3 3 2 2 1 1 1 1 1 1 1 2 2 2 2 2 4 4 5 5 6 7 8 8 8 8 9 9 8 9 10 9 9 11
17 21 18 7 25 24 24 23 15 1 1 2 2 2 2 1 1 3 3 3 5 5 4 2 1 1 1 1 1 1 2 0 3 2 2 3 4 4 5 4 5 5 5 5 5 7 7 8 8 8 9 8 9 9
18 14 4 24 22 23 23 12 3 0 1 1 3 3 5 1 3 3 4 3 6 7 3 2 2 1 3 1 1 2 3 2 2 2 3 4 5 5 5 4 4 3 4 4 4 5 6 7 7 7 7 9 9 9
14 1 18 19 23 23 11 2 1 1 2 3 3 3 3 3 2 2 4 3 6 4 2 2 3 1 2 1 3 4 3 3 4 3 3 4 4 5 5 4 4 4 4 4 3 4 5 6 6 6 9 10 8 8
1 9 14 18 17 5 2 3 3 4 4 2 2 2 3 2 2 3 3 4 4 4 4 3 4 5 4 4 3 3 3 4 2 2 3 3 4 5 5 5 4 3 3 4 4 2 3 5 6 6 7 6 6 8
9 6 13 15 9 3 2 4 3 3 2 2 2 2 2 2 2 2 2 4 2 2 2 3 5 3 3 3 3 4 4 4 4 3 1 1 2 3 5 6 5 4 3 3 4 2 3 2 3 4 5 4 4 5
6 4 16 10 6 1 3 3 2 3 2 1 2 2 2 2 1 2 3 4 3 2 5 4 3 2 2 2 2 3 3 5 5 4 4 3 3 4 3 4 4 5 3 4 4 7 4 3 4 5 6 6 5 5
5 8 10 7 3 4 3 2 3 2 2 3 2 2 1 2 2 3 3 3 3 3 2 2 2 2 1 2 2 3 4 5 3 3 4 4 3 3 3 3 5 2 2 3 3 5 7 4 5 2 3 5 3 4
2 9 2 4 3 4 3 3 2 1 3 1 2 2 3 2 3 2 2 4 3 1 1 1 1 1 1 1 2 3 3 5 4 5 9 7 4 4 4 4 3 4 2 2 3 3 3 4 5 2 3 3 7 4
5 4 3 5 5 5 3 2 4 4 3 1 2 3 3 2 2 2 3 2 2 0 1 1 1 2 1 2 2 2 3 4 4 4 4 3 4 2 2 3 2 2 3 3 2 2 2 9 7 4 3 5 4 5
8 4 5 3 3 0 2 4 3 3 3 3 3 2 3 1 2 3 2 1 1 1 2 3 2 3 1 2 2 0 1 2 3 3 3 2 3 3 3 3 2 1 2 2 2 2 3 3 9 4 4 4 5 6
5 6 4 3 3 4 5 4 5 4 2 2 3 3 2 2 2 2 2 1 1 2 2 3 3 2 1 2 2 2 2 2 1 3 4 0 1 3 3 3 3 3 2 2 2 3 4 4 4 4 5 4 7 8
4 4 2 1 2 3 1 2 1 2 2 2 1 2 2 2 3 2 2 2 1 1 0 1 1 2 2 1 2 2 3 1 1 2 3 1 1 2 3 3 2 3 1 2 1 3 6 5 5 7 7 10 16 11
3 2 1 1 0 3 3 2 2 3 2 3 2 1 2 2 2 3 1 1 2 1 1 1 2 1 3 3 3 2 2 1 4 4 5 3 3 4 4 3 4 3 2 4 4 5 7 9 9 9 9 8 6 6
3 1 4 2 3 2 4 2 2 3 2 2 1 0 5 6 4 2 2 1 2 1 1 1 2 2 2 3 3 2 4 3 5 5 3 3 4 4 4 4 6 16 8 4 7 7 7 8 9 11 11 10 6 2
2 0 3 3 3 3 2 3 3 1 0 2 3 2 2 2 2 1 1 1 1 2 0 1 3 2 3 3 3 3 3 1 3 4 3 4 3 4 3 4 5 5 5 6 17 16 12 10 10 8 7 1 4 4
2 1 4 2 3 1 2 1 2 1 1 1 1 2 2 2 2 1 2 1 1 2 3 2 2 0 3 3 5 5 3 3 4 4 3 5 4 3 5 8 8 7 5 6 7 8 15 7 8 4 5 5 4 4
0 1 3 3 2 1 1 1 2 1 1 0 1 2 2 2 3 2 2 2 2 1 2 3 4 3 3 4 2 4 7 2 4 7 6 6 7 8 9 10 8 7 7 7 6 5 6 6 5 6 6 7 8 11
2 2 3 3 1 2 1 0 1 1 1 1 2 1 3 3 2 2 2 3 2 0 4 2 2 4 3 3 4 4 14 8 6 5 7 7 8 10 13 14 13 8 7 7 5 6 8 8 7 7 8 9 8 8
3 2 3 3 2 0 2 3 3 2 2 2 2 1 1 1 3 2 1 3 3 3 3 3 4 4 6 7 7 7 11 8 15 19 23 25 26 23 15 9 6 2 4 5 6 6 8 9 8 9 8 8 9 9
Wind_Direction
12 360 349 348 345 338 335 335 339 341 341 330 328 317 311 303 304 278 246 181 199 239 265 241 254 245 265 257 279 294 274 145 196 254 248 238 232 208 336 247 187 175 188 198 199 233 261 357 22 36 340 351 335 341
5 354 350 346 341 338 338 340 336 329 330 325 323 320 318 326 309 282 235 194 200 233 256 304 268 264 257 242 260 229 282 126 237 271 273 301 278 336 275 263 330 283 201 345 217 253 58 36 51 38 13 5 352 344
2 351 348 351 352 345 336 333 329 325 321 317 315 312 310 310 302 300 259 174 161 245 256 244 254 266 107 181 198 228 237 198 230 225 336 298 259 151 232 238 150 288 150 222 30 3 347 51 51 23 0 354 351 350
360 352 351 347 342 338 337 331 323 316 313 311 307 305 305 304 302 290 265 191 177 289 254 244 137 167 86 50 355 2 336 314 268 256 253 235 236 183 241 207 126 10 334 275 249 42 22 77 45 8 350 1 359 350
1 355 351 345 343 339 336 331 324 324 325 324 327 315 298 300 299 295 249 213 185 192 287 266 298 100 135 135 267 264 252 253 237 221 218 235 234 191 194 67 74 358 2 337 13 36 316 317 12 10 5 357 348 342
350 347 342 340 337 337 337 331 327 324 314 310 315 312 309 300 306 261 298 63 360 136 304 298 149 47 14 313 274 231 226 242 243 275 225 241 9 162 269 92 50 19 2 340 318 326 271 286 291 14 349 339 336 338
349 343 337 338 336 337 336 333 328 322 314 309 306 303 301 299 291 244 251 68 136 75 275 276 279 146 165 275 236 246 183 247 235 259 219 238 190 224 13 67 355 357 333 10 23 336 358 43 329 335 344 334 329 329
345 342 343 341 339 338 337 336 329 329 326 307 298 308 340 57 95 48 355 5 109 122 181 289 282 68 348 319 322 335 279 241 225 287 297 319 70 44 65 2 353 349 334 7 350 337 283 297 337 349 342 343 352 353
342 342 343 342 341 339 343 337 338 336 331 337 338 80 37 37 32 330 320 64 67 29 282 193 259 288 323 239 228 269 139 290 108 284 46 335 32 51 352 342 351 355 353 315 321 334 10 3 347 346 345 351 353 344
346 344 345 342 340 345 344 339 342 339 333 337 354 20 106 30 330 322 269 241 129 103 292 279 346 304 23 4 300 344 159 291 324 53 305 68 85 114 30 11 356 350 348 346 348 359 353 350 349 346 340 336 336 330
347 344 342 343 340 346 343 341 335 339 13 360 343 355 333 325 313 314 41 1 26 316 211 18 41 329 360 333 324 33 320 295 292 24 328 87 83 43 15 14 12 5 355 4 335 315 320 313 332 335 336 343 340 337
340 341 340 344 339 345 343 340 337 352 322 288 292 327 284 347 346 42 9 360 337 324 2 312 73 332 4 3 294 316 295 336 334 307 313 85 80 40 12 5 10 12 3 358 352 345 341 342 337 338 338 350 348 345
325 334 336 340 313 343 337 335 334 329 325 85 224 247 20 350 30 48 336 308 313 289 179 259 281 317 303 80 286 343 283 288 287 35 68 63 52 26 3 8 14 20 11 10 16 14 10 6 7 9 6 6 360 8
324 330 333 338 322 335 332 334 328 324 282 297 339 311 39 2 55 27 329 331 2 323 320 290 271 289 50 291 1 303 269 30 310 161 76 52 35 5 9 22 20 12 10 14 11 13 14 8 5 16 13 12 10 17
334 328 331 354 338 334 336 331 325 295 295 310 314 295 51 35 188 34 353 302 8 320 309 261 256 337 201 288 173 335 339 257 42 52 56 48 22 5 3 11 21 10 5 9 1 9 11 4 8 11 11 11 20 17
332 332 6 343 337 337 335 331 8 45 162 297 29 339 348 62 36 26 12 349 7 326 272 222 277 263 254 190 167 21 304 53 42 44 36 19 21 9 356 6 12 2 13 8 3 6 3 5 5 2 7 9 16 18
335 77 344 340 336 333 337 333 306 11 14 22 77 61 327 56 51 48 4 345 321 306 324 311 254 319 331 116 66 15 32 24 17 42 46 18 6 350 341 7 10 9 20 3 353 5 4 346 355 11 19 4 0 12
286 334 337 341 346 337 328 14 41 48 69 30 66 21 86 26 348 48 341 339 335 349 333 27 334 39 33 17 54 28 12 351 56 38 35 359 3 357 355 354 356 5 6 350 338 9 32 13 20 9 354 355 359 1
314 345 350 350 352 313 24 7 40 89 48 33 91 44 80 108 120 92 0 326 288 339 12 30 49 35 48 33 3 10 359 354 323 306 129 103 13 347 355 351 1 5 358 354 344 23 9 56 31 3 342 355 16 350
8 29 360 356 351 261 71 358 42 78 74 61 39 31 64 68 347 11 20 354 16 51 42 42 43 38 15 15 353 335 354 333 339 357 12 14 32 344 18 359 348 337 353 1 358 16 32 9 21 14 346 11 5 350
41 357 357 10 28 53 87 2 46 72 81 84 345 53 47 34 29 14 353 342 57 31 69 53 72 89 70 45 14 358 3 349 352 335 318 323 5 346 355 6 343 352 7 15 10 3 18 355 344 356 1 338 349 336
354 2 28 0 71 34 69 348 116 317 71 124 53 58 34 25 354 348 288 44 59 44 52 36 21 7 99 50 27 33 344 331 330 337 343 353 338 350 355 348 358 348 11 33 10 354 341 323 321 45 3 322 350 323
29 32 42 25 65 44 275 359 66 6 79 321 37 42 5 21 270 358 61 82 145 177 130 120 196 231 240 196 190 95 34 351 344 336 331 331 318 339 353 327 4 23 353 339 349 339 317 343 331 357 346 339 326 325
41 50 50 49 46 217 354 21 18 41 38 35 52 28 347 300 320 53 79 73 227 12 48 360 24 356 359 10 34 359 338 356 316 310 313 343 326 324 308 285 292 245 196 259 309 325 323 305 336 322 310 316 313 303
67 345 58 359 340 59 47 19 352 45 64 344 67 346 313 355 64 59 146 243 76 72 23 6 19 43 118 298 331 325 237 110 327 305 293 210 313 326 326 327 308 244 165 42 327 316 302 304 301 293 293 291 284 284
71 317 70 186 326 99 151 87 52 168 89 30 257 262 2 81 67 212 215 191 150 129 68 54 15 344 333 144 286 311 284 195 108 262 273 91 201 203 262 291 311 308 224 156 238 285 292 287 283 288 289 291 310 322
118 253 350 341 283 101 67 50 38 93 112 188 252 360 66 78 242 242 208 292 131 186 141 136 127 176 252 288 284 285 306 259 208 236 274 269 246 219 196 222 262 248 271 260 251 253 271 286 289 284 281 283 272 262
149 143 147 249 65 22 117 72 107 181 215 232 69 134 166 186 218 229 185 232 137 130 136 195 177 187 258 267 257 292 298 307 298 284 285 271 237 237 228 237 248 274 278 290 277 270 266 266 270 273 276 281 291 319
80 218 113 51 43 50 104 141 194 223 231 130 151 211 243 251 216 203 224 155 96 76 64 326 300 326 308 294 280 236 243 234 34 335 305 284 310 297 228 240 250 261 263 264 290 300 295 280 281 308 335 265 256 266
234 306 99 78 93 144 230 118 196 247 265 175 268 313 297 287 244 158 118 100 128 212 224 212 248 182 278 317 309 307 269 216 190 189 223 261 252 267 297 291 283 274 260 253 264 280 297 313 307 328 316 301 294 288
95 74 73 67 113 246 173 314 302 251 27 349 317 156 249 285 302 217 183 197 174 97 7 305 296 255 251 289 277 302 315 287 214 229 236 258 265 268 270 271 270 267 263 257 253 251 262 287 280 276 280 281 284 305
29 74 109 102 268 283 28 176 202 158 289 54 290 307 329 19 316 277 216 117 93 265 279 308 275 279 238 250 248 234 273 283 283 271 259 266 266 263 264 269 271 264 257 249 242 250 257 261 274 272 276 279 277 277
59 52 50 95 67 327 279 88 17 355 8 31 333 303 233 167 232 269 272 201 174 194 243 264 267 272 277 274 267 278 295 274 280 289 302 308 307 307 322 315 295 241 225 245 251 256 261 265 269 269 268 268 273 276